Weather in Bonito

Brazil     11°57′55″S   41°16′23″W
temp.,
°C
wind,
m/s
gust,
m/s
humid.,
%
clouds,
%
prec.,
mm/h
press.,
hPa
HPBL,
m
20 april, tue
tue2000:00+19nnw1197100 1.8 101424
03:00+18wnw1198100 4.2 101346
06:00+18w119895 1.1 101420
09:00+21ene009297 2.6 1015114
12:00+23n018536 2.2 1013496
15:00+24wsw128058 4.9 1011760
18:00+19nw119497 5.1 101211
21:00+19nnw0095100 8.1 101411
21 april, wed
wed2100:00+18ene0099100 1.9 101413
03:00+18wnw1198100 4.6 101332
06:00+18nw119999 3.6 101428
09:00+19nw0098100 4.3 101664
12:00+22w138698 1.9 1013628
15:00+23wsw128498 5.3 1011646
18:00+19nw119793 4.9 101316
21:00+19wnw1197100 8.2 101512
22 april, thu
thu2200:00+19wnw1196100 1.9 101413
03:00+18w119997 5.6 101337
06:00+18nnw1198100 2.4 101422
09:00+19nw1298100 6.3 1016161
12:00+19w1499100 7.5 1015279
15:00+19sw1296100 8.5 1012235
18:00+18se1199100 0.1 101439
21:00+18w009999 0.1 101613
23 april, fri
fri2300:00+18e119880 0.0 101514
03:00+18ne1198100 0.0 101520
06:00+17ene119969 0.0 101616
09:00+23e127399 0.0 1017531
12:00+25ese217086 1.0 10141069
15:00+25e117027 4.0 1012782
18:00+20ene119499 2.1 101311
21:00+19e119667 2.3 101534
24 april, sat
sat2400:00+18ese149951 0.2 1015131
03:00+18ese2699100 0.4 1014367
06:00+18ese2698100 0.1 1015392
09:00+19ese249699 0.1 1017348
12:00+26se346096 0.1 10141331
15:00+24se346687 0.2 1012789
18:00+21e11805 0.0 101352
21:00+19ne279043 0.0 1015144